Vertical_Velocity
-1 -1 -0 -0 -1 -2 -0 -1 -1 -1 -1 -0 -0 -0 0 0 -2 -3 -2 -3 -1 -0 -0 -1 -0 -0 -0 -0 0 1 -0 -1 -0
-1 -1 -1 -2 -2 -1 -1 -1 -1 -1 -1 -2 -1 -1 -1 -1 1 0 0 -0 -2 -3 -2 -1 -0 -1 -0 1 -0 -1 0 0 0
-2 -0 0 -1 -1 -1 -1 0 -0 -1 -0 0 -0 -1 -2 -1 0 -1 0 -0 -0 0 -1 -1 -1 -1 -2 -1 1 1 0 0 -1
-1 -1 -1 -1 0 0 -0 -1 -1 -0 -1 -2 -1 0 0 -1 -2 -1 -1 -0 -1 -1 1 0 0 -0 -1 -0 -1 -0 -0 -1 0
-1 -1 -1 1 -0 -1 -1 -2 -1 -2 -3 -2 -3 -1 -1 -1 -1 -1 -1 -1 -1 1 -1 -1 0 1 0 -1 1 0 -1 0 1
-0 -1 -1 -1 -1 -0 -0 -0 0 1 -0 0 -1 -4 -2 -2 -3 -2 -2 -0 -1 -3 -1 -0 -0 -1 -1 -0 -0 0 0 0 0
0 -1 -1 -1 0 -1 -1 -1 -1 -1 -3 -2 -0 -1 -1 -1 -1 -3 -3 -2 -2 -1 -1 -1 -1 -0 -0 -1 -1 -1 -1 0 1
-3 -1 1 -1 -3 -2 -2 -1 -1 -0 -1 -2 -0 -0 -1 -0 -1 1 -1 -3 -0 -2 -3 -1 -0 -1 -1 -0 -1 -2 -1 0 -0
-0 -0 -2 0 -1 0 -0 -1 -2 -0 0 2 0 1 1 1 0 0 0 -2 -2 -0 -1 -2 -1 -1 -0 -1 -1 -0 -1 -2 -2
-0 -0 1 -1 0 1 0 1 -1 1 -2 -2 1 1 -2 -0 2 2 1 1 -0 0 1 -1 -2 0 -1 -2 -1 -1 -2 -2 -2
0 -0 -2 -0 -1 -4 -0 1 1 1 -0 1 -5 -0 1 0 2 0 1 1 2 2 3 3 1 -0 -1 0 0 -1 -1 -1 -2
1 2 0 -2 -6 -0 -1 -1 -3 -0 -0 3 2 -2 0 -1 1 0 -1 2 1 -1 -1 1 2 2 0 -0 -0 -0 -1 -1 -1
-1 1 0 0 -0 -2 -5 -2 -0 -3 -3 -3 1 1 1 0 -1 -1 1 0 2 3 2 1 1 0 5 1 -0 -1 -2 -0 0
0 -2 -0 0 0 -3 -2 -1 -4 1 -0 0 1 -0 -0 3 2 1 0 1 -1 3 5 3 4 2 3 1 -1 -1 -1 1 -1
-3 -1 -0 -1 1 -1 -2 0 1 -3 -1 -0 1 2 1 1 4 4 2 3 4 2 0 5 5 17 0 4 -3 1 -1 2 2
-1 -1 -1 -0 -3 1 1 -1 -1 4 -1 3 -2 2 1 4 0 0 4 4 4 -1 1 0 5 6 14 19 -1 -1 -0 2 -1
-1 -2 -2 1 -3 -0 1 2 2 2 -2 2 -3 12 9 -9 9 2 3 7 7 1 5 4 4 3 5 4 4 -0 0 -1 1
-0 -1 -2 2 2 -3 -2 -3 -1 10 -4 -2 -4 -3 -1 6 1 2 4 4 6 1 3 -3 2 3 -1 9 7 2 4 -0 1
-1 1 0 -1 1 1 1 1 -2 -1 4 -4 -10 -11 -12 -1 18 -3 1 -3 1 2 1 1 4 2 7 3 3 7 7 -2 -2
1 0 1 1 1 -0 0 -1 -1 1 -2 -2 3 -10 -6 -8 -5 18 -6 -0 0 1 2 8 -3 -2 1 1 3 3 -1 2 2
Height
5882 5881 5879 5877 5876 5875 5873 5872 5871 5870 5869 5868 5867 5866 5865 5865 5864 5862 5862 5861 5860 5860 5859 5859 5858 5857 5857 5856 5855 5854 5854 5853 5852
5880 5879 5877 5875 5874 5872 5871 5870 5868 5867 5865 5864 5863 5862 5861 5860 5860 5859 5858 5858 5857 5856 5855 5855 5854 5854 5853 5853 5852 5851 5850 5850 5849
5877 5875 5874 5872 5871 5869 5868 5866 5865 5864 5862 5861 5860 5859 5857 5856 5855 5854 5853 5853 5852 5852 5851 5850 5850 5849 5848 5848 5848 5847 5847 5846 5846
5872 5871 5869 5868 5867 5865 5863 5862 5861 5860 5858 5857 5856 5855 5853 5852 5851 5849 5848 5848 5847 5846 5846 5845 5844 5843 5842 5842 5842 5842 5842 5841 5841
5867 5866 5864 5863 5862 5860 5859 5858 5856 5855 5854 5853 5852 5850 5849 5848 5847 5846 5844 5843 5842 5841 5841 5840 5840 5839 5838 5837 5836 5836 5836 5836 5836
5863 5861 5861 5859 5858 5856 5854 5853 5852 5850 5849 5847 5846 5845 5844 5843 5842 5841 5839 5839 5838 5836 5836 5836 5835 5834 5834 5833 5831 5831 5831 5830 5830
5859 5858 5856 5855 5853 5852 5850 5848 5847 5846 5844 5842 5840 5838 5837 5836 5835 5834 5833 5833 5832 5831 5830 5830 5830 5829 5829 5828 5827 5826 5825 5825 5825
5854 5852 5851 5849 5847 5845 5844 5842 5840 5839 5837 5835 5833 5832 5830 5829 5827 5826 5825 5825 5825 5825 5825 5824 5823 5823 5823 5822 5822 5821 5820 5819 5819
5848 5847 5845 5843 5841 5839 5837 5835 5833 5831 5829 5827 5825 5823 5822 5820 5819 5818 5817 5816 5816 5816 5816 5816 5816 5816 5816 5816 5815 5815 5815 5814 5814
5842 5840 5837 5835 5832 5830 5828 5826 5823 5821 5819 5818 5815 5814 5812 5811 5810 5808 5807 5807 5806 5806 5806 5806 5806 5807 5808 5808 5808 5808 5808 5808 5807
5834 5831 5828 5825 5823 5820 5817 5814 5811 5810 5808 5806 5804 5803 5801 5800 5798 5798 5797 5797 5796 5795 5795 5796 5796 5796 5798 5800 5800 5800 5801 5801 5801
5825 5822 5819 5816 5811 5809 5806 5803 5800 5797 5795 5794 5791 5790 5788 5787 5786 5786 5786 5785 5784 5786 5786 5785 5786 5787 5788 5789 5791 5791 5792 5793 5793
5815 5811 5808 5805 5802 5798 5795 5792 5790 5788 5785 5782 5780 5778 5776 5775 5773 5771 5772 5773 5773 5773 5774 5775 5776 5777 5778 5779 5780 5781 5782 5784 5784
5804 5800 5797 5795 5791 5788 5785 5781 5779 5777 5775 5772 5769 5765 5762 5760 5758 5757 5756 5756 5757 5760 5761 5761 5763 5765 5768 5769 5770 5771 5772 5774 5775
5794 5791 5788 5784 5781 5777 5775 5772 5768 5766 5763 5760 5758 5753 5749 5745 5741 5740 5739 5738 5739 5742 5745 5747 5750 5753 5754 5757 5758 5761 5763 5764 5765
5786 5782 5778 5775 5771 5768 5765 5763 5761 5757 5754 5752 5747 5742 5736 5730 5724 5719 5717 5717 5717 5720 5725 5729 5734 5738 5741 5739 5746 5751 5752 5754 5756
5775 5772 5769 5766 5763 5761 5759 5757 5755 5751 5746 5742 5736 5730 5721 5711 5704 5697 5693 5694 5696 5700 5705 5710 5717 5723 5727 5731 5735 5738 5742 5744 5746
5766 5763 5761 5760 5758 5756 5754 5751 5748 5742 5735 5730 5723 5715 5705 5692 5680 5673 5670 5670 5672 5677 5683 5692 5699 5706 5712 5717 5722 5726 5728 5732 5736
5759 5758 5757 5756 5754 5751 5748 5744 5739 5734 5728 5719 5709 5697 5683 5672 5667 5654 5650 5649 5652 5657 5664 5674 5683 5690 5698 5704 5709 5714 5716 5720 5725
5755 5755 5754 5751 5749 5745 5740 5736 5731 5727 5721 5712 5700 5685 5670 5659 5649 5645 5635 5632 5634 5641 5648 5657 5669 5677 5685 5692 5698 5703 5706 5711 5716